Time,TemperatureF,DewpointF,PressureIn,WindDirection,WindDirectionDegrees,WindSpeedMPH,WindSpeedGustMPH,Humidity,HourlyPrecipIn,Conditions,Clouds,dailyrainin,SolarRadiationWatts/m^2,SoftwareType,DateUTC
2013-05-28 00:00:00,53.0,41.0,-100.00,SSE,157,1.0,-999.0,65,-99.99,,,-99.99,0.000000,,2013-05-28 05:00:00,
2013-05-28 00:33:00,53.0,41.0,-100.00,SSE,157,1.0,-999.0,65,-99.99,,,-99.99,0.000000,,2013-05-28 05:33:00,
2013-05-28 00:42:00,53.0,41.0,-100.00,SSE,157,1.0,-999.0,65,-99.99,,,-99.99,0.000000,,2013-05-28 05:42:00,
2013-05-28 00:52:00,53.0,41.0,-100.00,SSE,157,1.0,-999.0,65,-99.99,,,-99.99,0.000000,,2013-05-28 05:52:00,
2013-05-28 01:00:00,52.0,40.0,-100.00,ESE,112,0.0,-999.0,64,-99.99,,,-99.99,0.000000,,2013-05-28 06:00:00,
2013-05-28 01:32:00,52.0,40.0,-100.00,ESE,112,0.0,-999.0,64,-99.99,,,-99.99,0.000000,,2013-05-28 06:32:00,
2013-05-28 01:42:00,52.0,40.0,-100.00,ESE,112,0.0,-999.0,64,-99.99,,,-99.99,0.000000,,2013-05-28 06:42:00,
2013-05-28 01:52:00,52.0,40.0,-100.00,ESE,112,0.0,-999.0,64,-99.99,,,-99.99,0.000000,,2013-05-28 06:52:00,
2013-05-28 02:00:00,49.0,44.0,-100.00,SSE,157,0.0,-999.0,82,-99.99,,,-99.99,0.000000,,2013-05-28 07:00:00,
2013-05-28 02:32:00,49.0,44.0,-100.00,SSE,157,0.0,-999.0,82,-99.99,,,-99.99,0.000000,,2013-05-28 07:32:00,
2013-05-28 02:42:00,49.0,44.0,-100.00,SSE,157,0.0,-999.0,82,-99.99,,,-99.99,0.000000,,2013-05-28 07:42:00,
2013-05-28 02:52:00,49.0,44.0,-100.00,SSE,157,0.0,-999.0,82,-99.99,,,-99.99,0.000000,,2013-05-28 07:52:00,
2013-05-28 03:00:00,48.0,45.0,-100.00,East,90,0.0,-999.0,89,0.01,,,-99.99,0.000000,,2013-05-28 08:00:00,
2013-05-28 03:32:00,48.0,45.0,-100.00,East,90,0.0,-999.0,89,0.01,,,-99.99,0.000000,,2013-05-28 08:32:00,
2013-05-28 03:42:00,48.0,45.0,-100.00,East,90,0.0,-999.0,89,0.01,,,-99.99,0.000000,,2013-05-28 08:42:00,
2013-05-28 03:52:00,48.0,45.0,-100.00,East,90,0.0,-999.0,89,0.01,,,-99.99,0.000000,,2013-05-28 08:52:00,
2013-05-28 04:00:00,49.0,46.0,-100.00,SE,135,1.0,-999.0,90,-99.99,,,-99.99,0.000000,,2013-05-28 09:00:00,
2013-05-28 04:33:00,49.0,46.0,-100.00,SE,135,1.0,-999.0,90,-99.99,,,-99.99,0.000000,,2013-05-28 09:33:00,
2013-05-28 04:43:00,49.0,46.0,-100.00,SE,135,1.0,-999.0,90,-99.99,,,-99.99,0.000000,,2013-05-28 09:43:00,
2013-05-28 04:54:00,49.0,46.0,-100.00,SE,135,1.0,-999.0,90,-99.99,,,-99.99,0.000000,,2013-05-28 09:54:00,
2013-05-28 05:00:00,49.0,46.0,-100.00,SE,135,0.0,-999.0,88,-99.99,,,-99.99,0.000000,,2013-05-28 10:00:00,
2013-05-28 05:32:00,49.0,46.0,-100.00,SE,135,0.0,-999.0,88,-99.99,,,-99.99,0.000000,,2013-05-28 10:32:00,
2013-05-28 05:43:00,49.0,46.0,-100.00,SE,135,0.0,-999.0,88,-99.99,,,-99.99,0.000000,,2013-05-28 10:43:00,
2013-05-28 05:53:00,49.0,46.0,-100.00,SE,135,0.0,-999.0,88,-99.99,,,-99.99,0.000000,,2013-05-28 10:53:00,
2013-05-28 06:00:00,50.0,47.0,-100.00,East,90,0.0,-999.0,90,-99.99,,,-99.99,2.320000,,2013-05-28 11:00:00,
2013-05-28 06:32:00,50.0,47.0,-100.00,East,90,0.0,-999.0,90,-99.99,,,-99.99,2.320000,,2013-05-28 11:32:00,
2013-05-28 06:42:00,50.0,47.0,-100.00,East,90,0.0,-999.0,90,-99.99,,,-99.99,2.320000,,2013-05-28 11:42:00,
2013-05-28 06:52:00,50.0,47.0,-100.00,East,90,0.0,-999.0,90,-99.99,,,-99.99,2.320000,,2013-05-28 11:52:00,
2013-05-28 07:00:00,50.0,49.0,-100.00,ESE,112,1.0,-999.0,94,0.07,,,-99.99,13.920000,,2013-05-28 12:00:00,
2013-05-28 07:32:00,50.0,49.0,-100.00,ESE,112,1.0,-999.0,94,0.07,,,-99.99,13.920000,,2013-05-28 12:32:00,
2013-05-28 07:42:00,50.0,49.0,-100.00,ESE,112,1.0,-999.0,94,0.07,,,-99.99,13.920000,,2013-05-28 12:42:00,
2013-05-28 07:52:00,50.0,49.0,-100.00,ESE,112,1.0,-999.0,94,0.07,,,-99.99,13.920000,,2013-05-28 12:52:00,
2013-05-28 08:00:00,51.0,50.0,-100.00,East,90,2.0,-999.0,95,-99.99,,,-99.99,60.320000,,2013-05-28 13:00:00,
2013-05-28 08:32:00,51.0,50.0,-100.00,East,90,2.0,-999.0,95,-99.99,,,-99.99,60.320000,,2013-05-28 13:32:00,
2013-05-28 08:42:00,51.0,50.0,-100.00,East,90,2.0,-999.0,95,-99.99,,,-99.99,60.320000,,2013-05-28 13:42:00,
2013-05-28 08:52:00,51.0,50.0,-100.00,East,90,2.0,-999.0,95,-99.99,,,-99.99,60.320000,,2013-05-28 13:52:00,
2013-05-28 09:00:00,51.0,50.0,-100.00,SE,135,2.0,-999.0,95,-99.99,,,-99.99,63.799999,,2013-05-28 14:00:00,
2013-05-28 09:32:00,51.0,50.0,-100.00,SE,135,2.0,-999.0,95,-99.99,,,-99.99,63.799999,,2013-05-28 14:32:00,
2013-05-28 09:42:00,51.0,50.0,-100.00,SE,135,2.0,-999.0,95,-99.99,,,-99.99,63.799999,,2013-05-28 14:42:00,
2013-05-28 09:52:00,51.0,50.0,-100.00,SE,135,2.0,-999.0,95,-99.99,,,-99.99,63.799999,,2013-05-28 14:52:00,
2013-05-28 10:00:00,51.0,50.0,-100.00,East,90,1.0,-999.0,95,-99.99,,,-99.99,63.799999,,2013-05-28 15:00:00,
2013-05-28 10:33:00,51.0,50.0,-100.00,East,90,1.0,-999.0,95,-99.99,,,-99.99,63.799999,,2013-05-28 15:33:00,
2013-05-28 10:43:00,51.0,50.0,-100.00,East,90,1.0,-999.0,95,-99.99,,,-99.99,63.799999,,2013-05-28 15:43:00,
2013-05-28 10:53:00,51.0,50.0,-100.00,East,90,1.0,-999.0,95,-99.99,,,-99.99,63.799999,,2013-05-28 15:53:00,
2013-05-28 11:00:00,51.0,50.0,-100.00,ENE,67,1.0,-999.0,96,-99.99,,,-99.99,73.080002,,2013-05-28 16:00:00,
2013-05-28 11:33:00,51.0,50.0,-100.00,ENE,67,1.0,-999.0,96,-99.99,,,-99.99,73.080002,,2013-05-28 16:33:00,
2013-05-28 11:42:00,51.0,50.0,-100.00,ENE,67,1.0,-999.0,96,-99.99,,,-99.99,73.080002,,2013-05-28 16:42:00,
2013-05-28 11:52:00,51.0,50.0,-100.00,ENE,67,1.0,-999.0,96,-99.99,,,-99.99,73.080002,,2013-05-28 16:52:00,
2013-05-28 12:00:00,52.0,51.0,-100.00,ENE,67,2.0,-999.0,96,0.04,,,-99.99,89.320000,,2013-05-28 17:00:00,
2013-05-28 12:32:00,52.0,51.0,-100.00,ENE,67,2.0,-999.0,96,0.04,,,-99.99,89.320000,,2013-05-28 17:32:00,
2013-05-28 12:42:00,52.0,51.0,-100.00,ENE,67,2.0,-999.0,96,0.04,,,-99.99,89.320000,,2013-05-28 17:42:00,
2013-05-28 12:52:00,52.0,51.0,-100.00,ENE,67,2.0,-999.0,96,0.04,,,-99.99,89.320000,,2013-05-28 17:52:00,
2013-05-28 13:00:00,53.0,52.0,-100.00,ENE,67,2.0,-999.0,96,0.01,,,-99.99,153.119995,,2013-05-28 18:00:00,
2013-05-28 13:32:00,53.0,52.0,-100.00,ENE,67,2.0,-999.0,96,0.01,,,-99.99,153.119995,,2013-05-28 18:32:00,
2013-05-28 13:42:00,53.0,52.0,-100.00,ENE,67,2.0,-999.0,96,0.01,,,-99.99,153.119995,,2013-05-28 18:42:00,
2013-05-28 13:52:00,53.0,52.0,-100.00,ENE,67,2.0,-999.0,96,0.01,,,-99.99,153.119995,,2013-05-28 18:52:00,
2013-05-28 14:00:00,54.0,52.0,-100.00,NE,45,2.0,-999.0,95,0.01,,,-99.99,124.120003,,2013-05-28 19:00:00,
2013-05-28 14:32:00,54.0,52.0,-100.00,NE,45,2.0,-999.0,95,0.01,,,-99.99,124.120003,,2013-05-28 19:32:00,
2013-05-28 14:42:00,54.0,52.0,-100.00,NE,45,2.0,-999.0,95,0.01,,,-99.99,124.120003,,2013-05-28 19:42:00,
2013-05-28 14:52:00,54.0,52.0,-100.00,NE,45,2.0,-999.0,95,0.01,,,-99.99,124.120003,,2013-05-28 19:52:00,
2013-05-28 15:00:00,54.0,52.0,-100.00,NE,45,2.0,-999.0,95,0.01,,,-99.99,142.679993,,2013-05-28 20:00:00,
2013-05-28 15:32:00,54.0,52.0,-100.00,NE,45,2.0,-999.0,95,0.01,,,-99.99,142.679993,,2013-05-28 20:32:00,
2013-05-28 15:42:00,54.0,52.0,-100.00,NE,45,2.0,-999.0,95,0.01,,,-99.99,142.679993,,2013-05-28 20:42:00,
2013-05-28 15:52:00,54.0,52.0,-100.00,NE,45,2.0,-999.0,95,0.01,,,-99.99,142.679993,,2013-05-28 20:52:00,
2013-05-28 16:00:00,55.0,53.0,-100.00,NE,45,1.0,-999.0,95,-99.99,,,-99.99,171.679993,,2013-05-28 21:00:00,
2013-05-28 16:33:00,55.0,53.0,-100.00,NE,45,1.0,-999.0,95,-99.99,,,-99.99,171.679993,,2013-05-28 21:33:00,
2013-05-28 16:43:00,55.0,53.0,-100.00,NE,45,1.0,-999.0,95,-99.99,,,-99.99,171.679993,,2013-05-28 21:43:00,
2013-05-28 16:53:00,55.0,53.0,-100.00,NE,45,1.0,-999.0,95,-99.99,,,-99.99,171.679993,,2013-05-28 21:53:00,
2013-05-28 17:00:00,55.0,54.0,-100.00,NNE,22,1.0,-999.0,95,-99.99,,,-99.99,126.440002,,2013-05-28 22:00:00,
2013-05-28 17:33:00,55.0,54.0,-100.00,NNE,22,1.0,-999.0,95,-99.99,,,-99.99,126.440002,,2013-05-28 22:33:00,
2013-05-28 17:42:00,55.0,54.0,-100.00,NNE,22,1.0,-999.0,95,-99.99,,,-99.99,126.440002,,2013-05-28 22:42:00,
2013-05-28 17:52:00,55.0,54.0,-100.00,NNE,22,1.0,-999.0,95,-99.99,,,-99.99,126.440002,,2013-05-28 22:52:00,
2013-05-28 18:00:00,55.0,53.0,-100.00,NNE,22,2.0,-999.0,95,-99.99,,,-99.99,110.199997,,2013-05-28 23:00:00,
2013-05-28 18:32:00,55.0,53.0,-100.00,NNE,22,2.0,-999.0,95,-99.99,,,-99.99,110.199997,,2013-05-28 23:32:00,
2013-05-28 18:42:00,55.0,53.0,-100.00,NNE,22,2.0,-999.0,95,-99.99,,,-99.99,110.199997,,2013-05-28 23:42:00,
2013-05-28 18:52:00,55.0,53.0,-100.00,NNE,22,2.0,-999.0,95,-99.99,,,-99.99,110.199997,,2013-05-28 23:52:00,
2013-05-28 20:00:00,54.0,53.0,-100.00,NNE,22,1.0,-999.0,95,-99.99,,,-99.99,25.520000,,2013-05-29 01:00:00,
2013-05-28 20:32:00,54.0,53.0,-100.00,NNE,22,1.0,-999.0,95,-99.99,,,-99.99,25.520000,,2013-05-29 01:32:00,
2013-05-28 20:42:00,54.0,53.0,-100.00,NNE,22,1.0,-999.0,95,-99.99,,,-99.99,25.520000,,2013-05-29 01:42:00,
2013-05-28 20:52:00,54.0,53.0,-100.00,NNE,22,1.0,-999.0,95,-99.99,,,-99.99,25.520000,,2013-05-29 01:52:00,
2013-05-28 21:00:00,53.0,52.0,-100.00,East,90,1.0,-999.0,96,-99.99,,,-99.99,4.640000,,2013-05-29 02:00:00,
2013-05-28 21:32:00,53.0,52.0,-100.00,East,90,1.0,-999.0,96,-99.99,,,-99.99,4.640000,,2013-05-29 02:32:00,
2013-05-28 21:42:00,53.0,52.0,-100.00,East,90,1.0,-999.0,96,-99.99,,,-99.99,4.640000,,2013-05-29 02:42:00,
2013-05-28 21:52:00,53.0,52.0,-100.00,East,90,1.0,-999.0,96,-99.99,,,-99.99,4.640000,,2013-05-29 02:52:00,
2013-05-28 22:00:00,53.0,52.0,-100.00,NNE,22,0.0,-999.0,96,-99.99,,,-99.99,0.000000,,2013-05-29 03:00:00,
2013-05-28 22:33:00,53.0,52.0,-100.00,NNE,22,0.0,-999.0,96,-99.99,,,-99.99,0.000000,,2013-05-29 03:33:00,
2013-05-28 22:43:00,53.0,52.0,-100.00,NNE,22,0.0,-999.0,96,-99.99,,,-99.99,0.000000,,2013-05-29 03:43:00,
2013-05-28 22:53:00,53.0,52.0,-100.00,NNE,22,0.0,-999.0,96,-99.99,,,-99.99,0.000000,,2013-05-29 03:53:00,
2013-05-28 23:00:00,52.0,51.0,-100.00,WNW,292,0.0,-999.0,96,-99.99,,,-99.99,0.000000,,2013-05-29 04:00:00,
2013-05-28 23:33:00,52.0,51.0,-100.00,WNW,292,0.0,-999.0,96,-99.99,,,-99.99,0.000000,,2013-05-29 04:33:00,
2013-05-28 23:42:00,52.0,51.0,-100.00,WNW,292,0.0,-999.0,96,-99.99,,,-99.99,0.000000,,2013-05-29 04:42:00,
2013-05-28 23:52:00,52.0,51.0,-100.00,WNW,292,0.0,-999.0,96,-99.99,,,-99.99,0.000000,,2013-05-29 04:52:00,